This is the latest recevied weather packets stored in our database for station/object JH5EWP-13. If no packets are shown the sender has not sent any weather packets the latest 10 day(s).
| Time | Temp. | Humidity | Pressure | Rain* | Wind** | Luminosity | Snow |
|---|---|---|---|---|---|---|---|
| 1778123863 | 24.44° C | 48% | 1003.5 hPa | 0 mm | - | - | - |
| 1778122965 | 25° C | 47% | 1003.8 hPa | 0 mm | - | - | - |
| 1778122065 | 25° C | 47% | 1004 hPa | 0 mm | - | - | - |
| 1778121164 | 25° C | 47% | 1004.2 hPa | 0 mm | - | - | - |
| 1778120265 | 25° C | 49% | 1004.4 hPa | 0 mm | - | - | - |
| 1778119364 | 24.44° C | 50% | 1004.5 hPa | 0 mm | - | - | - |
| 1778118464 | 24.44° C | 49% | 1004.3 hPa | 0 mm | - | - | - |
| 1778117564 | 23.89° C | 49% | 1004.7 hPa | 0 mm | - | - | - |
| 1778116664 | 23.89° C | 49% | 1004.8 hPa | 0 mm | - | - | - |
| 1778115763 | 23.89° C | 46% | 1004.8 hPa | 0 mm | - | - | - |
| 1778114864 | 23.33° C | 47% | 1005 hPa | 0 mm | - | - | - |
| 1778113965 | 23.33° C | 49% | 1005.1 hPa | 0 mm | - | - | - |
| 1778113065 | 22.78° C | 48% | 1005.2 hPa | 0 mm | - | - | - |
| 1778112164 | 22.22° C | 52% | 1005.5 hPa | 0 mm | - | - | - |
| 1778111264 | 21.11° C | 52% | 1005.6 hPa | 0 mm | - | - | - |
| 1778110364 | 20° C | 57% | 1005.7 hPa | 0 mm | - | - | - |
| 1778109464 | 19.44° C | 57% | 1005.9 hPa | 0 mm | - | - | - |
| 1778108564 | 19.44° C | 60% | 1006 hPa | 0 mm | - | - | - |
| 1778107664 | 18.89° C | 63% | 1006.1 hPa | 0 mm | - | - | - |
| 1778106765 | 17.78° C | 64% | 1006.2 hPa | 0 mm | - | - | - |
| 1778105865 | 16.67° C | 71% | 1006.3 hPa | 0 mm | - | - | - |
| 1778104965 | 16.11° C | 71% | 1006.2 hPa | 0 mm | - | - | - |
| 1778104065 | 16.11° C | 71% | 1006.1 hPa | 0 mm | - | - | - |
| 1778103164 | 15.56° C | 71% | 1006.1 hPa | 0 mm | - | - | - |
| 1778102263 | 15.56° C | 71% | 1006.1 hPa | 0 mm | - | - | - |
* Rain latest hour (hover to see other rain measurements)
** Current wind speed in m/s (hover to see current wind gust speed)